| time (UTC) | temp C | wind direction | speed KPH | gust KPH | rain 1hr cm | rain 24hr cm | rain mn cm | humidity % | barometer mb |
| 20260508193028 | 8 | 356 | 6.4 | 12.9 | 0.00 | 1.68 | 0.00 | 80 | 1001.7 |
| 20260508191535 | 8 | 358 | 6.4 | 14.5 | 0.00 | 1.68 | 0.00 | 81 | 1001.6 |
| 20260508190028 | 8 | 347 | 9.7 | 17.7 | 0.00 | 1.68 | 0.00 | 80 | 1001.5 |
| 20260508184528 | 8 | 27 | 9.7 | 16.1 | 0.00 | 2.06 | 0.00 | 78 | 1001.5 |
| 20260508183033 | 8 | 359 | 6.4 | 12.9 | 0.00 | 2.06 | 0.00 | 79 | 1001.5 |
| 20260508181531 | 9 | 46 | 8.0 | 16.1 | 0.00 | 2.06 | 0.00 | 77 | 1001.6 |
| 20260508180028 | 9 | 14 | 6.4 | 14.5 | 0.00 | 2.06 | 0.00 | 78 | 1001.6 |
| 20260508174534 | 8 | 35 | 4.8 | 19.3 | 0.00 | 2.06 | 0.00 | 81 | 1001.6 |
| 20260508173031 | 8 | 72 | 8.0 | 16.1 | 0.00 | 2.06 | 0.00 | 80 | 1001.6 |
| 20260508171531 | 8 | 36 | 4.8 | 12.9 | 0.00 | 2.06 | 0.00 | 82 | 1001.9 |
| 20260508170028 | 7 | 342 | 3.2 | 9.7 | 0.00 | 2.06 | 0.00 | 83 | 1002.0 |
| 20260508164528 | 7 | 2 | 4.8 | 9.7 | 0.00 | 2.06 | 0.00 | 84 | 1001.8 |
| 20260508163035 | 7 | 3 | 3.2 | 9.7 | 0.00 | 2.06 | 0.00 | 85 | 1001.9 |
| 20260508161531 | 6 | 9 | 3.2 | 6.4 | 0.00 | 2.06 | 0.00 | 84 | 1001.8 |
| 20260508160030 | 6 | 0 | 3.2 | 9.7 | 0.00 | 2.06 | 0.00 | 85 | 1001.9 |
| 20260508154530 | 7 | 27 | 6.4 | 11.3 | 0.00 | 2.06 | 0.00 | 84 | 1001.9 |
| 20260508153037 | 6 | 360 | 4.8 | 9.7 | 0.00 | 2.06 | 0.00 | 85 | 1001.8 |
| 20260508151532 | 7 | 358 | 6.4 | 12.9 | 0.00 | 2.06 | 0.00 | 84 | 1001.8 |
| 20260508150049 | 7 | 2 | 4.8 | 9.7 | 0.00 | 2.06 | 0.00 | 85 | 1002.2 |
| 20260508144531 | 7 | 5 | 6.4 | 12.9 | 0.00 | 2.06 | 0.00 | 86 | 1002.1 |
| 20260508143027 | 7 | 360 | 8.0 | 14.5 | 0.00 | 2.06 | 0.00 | 86 | 1002.1 |
| 20260508141530 | 7 | 357 | 6.4 | 12.9 | 0.00 | 2.06 | 0.00 | 86 | 1002.5 |
| 20260508140030 | 7 | 1 | 8.0 | 12.9 | 0.00 | 2.06 | 0.00 | 87 | 1002.5 |
| 20260508134529 | 7 | 1 | 6.4 | 9.7 | 0.00 | 2.06 | 0.00 | 87 | 1002.9 |
| 20260508133032 | 7 | 358 | 4.8 | 12.9 | 0.00 | 2.06 | 0.00 | 89 | 1002.8 |
| 20260508131529 | 7 | 1 | 8.0 | 12.9 | 0.00 | 2.06 | 0.00 | 90 | 1002.6 |
| 20260508130030 | 7 | 360 | 9.7 | 14.5 | 0.00 | 2.06 | 0.00 | 91 | 1002.5 |
| 20260508124528 | 6 | 356 | 4.8 | 12.9 | 0.00 | 2.06 | 0.00 | 91 | 1002.4 |
| 20260508123035 | 6 | 9 | 4.8 | 12.9 | 0.00 | 2.06 | 0.00 | 92 | 1002.5 |
| 20260508121532 | 7 | 357 | 9.7 | 14.5 | 0.00 | 2.06 | 0.00 | 92 | 1002.3 |
| 20260508120028 | 6 | 344 | 6.4 | 14.5 | 0.00 | 2.06 | 0.00 | 93 | 1002.6 |
| 20260508114533 | 6 | 352 | 6.4 | 9.7 | 0.00 | 2.06 | 0.00 | 93 | 1002.7 |
| 20260508113030 | 6 | 354 | 4.8 | 9.7 | 0.00 | 2.06 | 0.00 | 93 | 1002.4 |
| 20260508111529 | 5 | 337 | 3.2 | 8.0 | 0.00 | 2.06 | 0.00 | 93 | 1002.6 |
| 20260508110028 | 4 | 341 | 3.2 | 6.4 | 0.00 | 2.06 | 0.00 | 93 | 1002.5 |
| 20260508104528 | 4 | 341 | 4.8 | 6.4 | 0.00 | 2.06 | 0.00 | 93 | 1002.8 |
| 20260508103028 | 4 | 347 | 3.2 | 4.8 | 0.00 | 2.06 | 0.00 | 93 | 1002.8 |
| 20260508101529 | 4 | 348 | 3.2 | 6.4 | 0.00 | 2.06 | 0.00 | 93 | 1002.7 |
| 20260508100033 | 3 | 0 | 0.0 | 0.0 | 0.00 | 2.06 | 0.00 | 93 | 1002.8 |
| 20260508094528 | 3 | 0 | 0.0 | 0.0 | 0.00 | 2.11 | 0.00 | 93 | 1002.7 |
| 20260508093035 | 3 | 0 | 0.0 | 0.0 | 0.00 | 2.11 | 0.00 | 92 | 1002.4 |
| 20260508091528 | 3 | 0 | 0.0 | 0.0 | 0.00 | 2.11 | 0.00 | 92 | 1002.3 |
| 20260508090034 | 3 | 0 | 0.0 | 0.0 | 0.00 | 2.11 | 0.00 | 92 | 1002.5 |
| 20260508084528 | 3 | 0 | 1.6 | 6.4 | 0.00 | 2.29 | 0.00 | 92 | 1002.5 |
| 20260508083027 | 3 | 350 | 1.6 | 4.8 | 0.00 | 2.29 | 0.00 | 92 | 1002.1 |
| 20260508081530 | 3 | 350 | 0.0 | 3.2 | 0.00 | 2.29 | 0.00 | 92 | 1001.8 |
| 20260508080050 | 3 | 350 | 1.6 | 4.8 | 0.00 | 2.29 | 0.00 | 92 | 1001.9 |
| 20260508074528 | 3 | 350 | 1.6 | 4.8 | 0.00 | 2.29 | 0.00 | 92 | 1001.9 |
| 20260508073030 | 3 | 0 | 0.0 | 4.8 | 0.00 | 2.29 | 0.00 | 92 | 1001.9 |
| 20260508071531 | 3 | 350 | 3.2 | 6.4 | 0.00 | 2.29 | 0.00 | 92 | 1002.1 |
| 20260508070028 | 3 | 350 | 0.0 | 6.4 | 0.00 | 2.29 | 0.00 | 92 | 1001.8 |
| 20260508064541 | 4 | 349 | 4.8 | 8.0 | 0.00 | 2.29 | 0.00 | 92 | 1001.8 |
| 20260508063030 | 4 | 347 | 1.6 | 8.0 | 0.00 | 2.29 | 0.00 | 92 | 1001.9 |
| 20260508061534 | 4 | 352 | 4.8 | 12.9 | 0.00 | 2.29 | 0.00 | 92 | 1002.0 |
| 20260508060028 | 5 | 360 | 4.8 | 14.5 | 0.00 | 2.29 | 0.00 | 92 | 1001.7 |
| 20260508054540 | 5 | 358 | 6.4 | 12.9 | 0.00 | 2.29 | 0.00 | 92 | 1002.0 |
| 20260508053030 | 5 | 348 | 4.8 | 9.7 | 0.00 | 2.29 | 0.00 | 92 | 1001.9 |
| 20260508051532 | 5 | 355 | 3.2 | 6.4 | 0.00 | 2.29 | 0.00 | 92 | 1001.4 |
| 20260508050028 | 6 | 356 | 3.2 | 4.8 | 0.00 | 2.29 | 0.00 | 92 | 1001.4 |
| 20260508044528 | 6 | 356 | 1.6 | 4.8 | 0.00 | 2.29 | 0.00 | 92 | 1001.5 |
| 20260508043030 | 7 | 355 | 3.2 | 8.0 | 0.00 | 2.29 | 0.00 | 92 | 1001.7 |
| 20260508041532 | 8 | 346 | 4.8 | 12.9 | 0.00 | 2.29 | 0.00 | 92 | 1001.8 |
| 20260508040044 | 8 | 249 | 0.0 | 3.2 | 0.00 | 2.29 | 0.00 | 93 | 1001.7 |
| 20260508034538 | 8 | 249 | 1.6 | 6.4 | 0.00 | 2.29 | 0.00 | 93 | 1001.9 |
| 20260508033029 | 8 | 249 | 1.6 | 6.4 | 0.00 | 2.29 | 0.00 | 93 | 1002.0 |
| 20260508031532 | 8 | 249 | 3.2 | 8.0 | 0.00 | 2.29 | 0.00 | 93 | 1002.2 |
| 20260508030030 | 9 | 252 | 3.2 | 11.3 | 0.00 | 2.29 | 0.00 | 92 | 1002.1 |
| 20260508024529 | 9 | 243 | 4.8 | 14.5 | 0.00 | 2.29 | 2.29 | 92 | 1001.9 |
| 20260508023030 | 9 | 268 | 8.0 | 16.1 | 0.00 | 2.29 | 2.29 | 92 | 1001.5 |
| 20260508021532 | 9 | 252 | 8.0 | 19.3 | 0.00 | 2.29 | 2.29 | 92 | 1001.7 |
| 20260508020027 | 9 | 235 | 8.0 | 17.7 | 0.00 | 2.29 | 2.29 | 92 | 1001.7 |
| 20260508014529 | 10 | 254 | 4.8 | 16.1 | 0.00 | 2.29 | 2.29 | 92 | 1001.8 |
| 20260508013030 | 10 | 271 | 4.8 | 12.9 | 0.00 | 2.29 | 2.29 | 92 | 1001.7 |
| 20260508011532 | 10 | 251 | 6.4 | 11.3 | 0.00 | 2.29 | 2.29 | 92 | 1001.5 |
| 20260508010030 | 10 | 220 | 3.2 | 9.7 | 0.00 | 2.29 | 2.29 | 92 | 1001.9 |
| 20260508004531 | 9 | 222 | 3.2 | 9.7 | 0.00 | 2.29 | 2.29 | 91 | 1001.8 |
| 20260508003028 | 9 | 221 | 3.2 | 9.7 | 0.00 | 2.29 | 2.29 | 91 | 1001.8 |
| 20260508001530 | 9 | 190 | 3.2 | 14.5 | 0.00 | 2.29 | 2.29 | 91 | 1001.9 |
| 20260508000029 | 9 | 212 | 3.2 | 16.1 | 0.00 | 2.29 | 2.29 | 91 | 1002.0 |
| 20260507234542 | 10 | 175 | 4.8 | 16.1 | 0.00 | 2.29 | 2.29 | 91 | 1002.1 |
| 20260507233030 | 10 | 189 | 4.8 | 12.9 | 0.00 | 2.29 | 2.29 | 91 | 1001.9 |
| 20260507231528 | 10 | 176 | 6.4 | 14.5 | 0.00 | 2.29 | 2.29 | 91 | 1002.4 |
| 20260507230030 | 10 | 213 | 4.8 | 19.3 | 0.00 | 2.29 | 2.29 | 91 | 1002.2 |
| 20260507224530 | 10 | 171 | 8.0 | 24.1 | 0.00 | 2.29 | 2.29 | 91 | 1002.5 |
| 20260507223030 | 10 | 253 | 9.7 | 22.5 | 0.00 | 2.29 | 2.29 | 91 | 1002.4 |
| 20260507221534 | 10 | 213 | 6.4 | 17.7 | 0.00 | 2.29 | 2.29 | 91 | 1002.6 |
| 20260507220036 | 10 | 196 | 11.3 | 27.4 | 0.00 | 2.29 | 2.29 | 91 | 1002.5 |
| 20260507214528 | 10 | 209 | 12.9 | 24.1 | 0.05 | 2.29 | 2.29 | 91 | 1002.5 |
| 20260507213031 | 9 | 210 | 9.7 | 25.7 | 0.25 | 2.29 | 2.29 | 91 | 1002.1 |
| 20260507211534 | 9 | 173 | 16.1 | 33.8 | 0.46 | 2.29 | 2.29 | 90 | 1001.6 |
| 20260507210033 | 10 | 180 | 11.3 | 30.6 | 0.64 | 2.29 | 2.29 | 90 | 1002.3 |
| 20260507204531 | 10 | 202 | 8.0 | 17.7 | 0.89 | 2.24 | 2.24 | 90 | 1003.1 |
| 20260507203030 | 10 | 193 | 9.7 | 22.5 | 1.09 | 2.03 | 2.03 | 90 | 1003.4 |
| 20260507201528 | 10 | 177 | 4.8 | 16.1 | 1.07 | 1.78 | 1.78 | 90 | 1004.0 |
| 20260507200027 | 10 | 231 | 8.0 | 19.3 | 1.02 | 1.60 | 1.60 | 90 | 1004.7 |
| 20260507194545 | 11 | 239 | 12.9 | 24.1 | 0.81 | 1.30 | 1.30 | 90 | 1004.9 |